QPF
0.00 0.00 0.00 0.00 0.04 0.04 0.00 0.00 0.00 0.00 0.00 0.00 0.00 0.00 0.00 0.00 0.00 0.01 0.00 0.00 0.00 0.00 0.00 0.00 0.00 0.00 0.00 0.00 0.02 0.02 0.01 0.03 0.02 0.02 0.03 0.03 0.03 0.04 0.00 0.00 0.00 0.03 0.02 0.00 0.01 0.02 0.02 0.03 0.00
0.00 0.00 0.01 0.13 0.11 0.02 0.00 0.00 0.00 0.00 0.00 0.00 0.00 0.00 0.00 0.00 0.00 0.00 0.00 0.00 0.00 0.00 0.00 0.00 0.00 0.00 0.00 0.00 0.02 0.03 0.04 0.06 0.06 0.05 0.02 0.03 0.05 0.03 0.02 0.01 0.03 0.01 0.01 0.06 0.01 0.01 0.01 0.02 0.03
0.00 0.00 0.07 0.32 0.13 0.01 0.00 0.00 0.00 0.00 0.00 0.00 0.00 0.00 0.00 0.00 0.00 0.00 0.00 0.00 0.01 0.00 0.00 0.00 0.00 0.00 0.00 0.00 0.01 0.03 0.03 0.04 0.05 0.04 0.03 0.04 0.03 0.02 0.00 0.00 0.00 0.00 0.03 0.07 0.05 0.07 0.03 0.00 0.01
0.00 0.00 0.03 0.04 0.01 0.00 0.00 0.00 0.00 0.00 0.01 0.00 0.07 0.10 0.00 0.00 0.00 0.00 0.00 0.00 0.00 0.00 0.00 0.00 0.00 0.00 0.00 0.00 0.01 0.02 0.05 0.03 0.03 0.04 0.02 0.01 0.02 0.02 0.00 0.00 0.01 0.06 0.02 0.04 0.04 0.14 0.09 0.00 0.00
0.00 0.01 0.25 0.32 0.03 0.00 0.00 0.00 0.00 0.00 0.00 0.00 0.05 0.19 0.01 0.00 0.00 0.00 0.00 0.00 0.00 0.00 0.00 0.00 0.00 0.00 0.00 0.00 0.00 0.01 0.02 0.03 0.02 0.02 0.01 0.02 0.01 0.00 0.00 0.00 0.03 0.04 0.00 0.01 0.06 0.08 0.03 0.00 0.00
0.00 0.02 0.16 0.15 0.01 0.00 0.00 0.00 0.00 0.00 0.00 0.00 0.03 0.45 0.22 0.00 0.00 0.00 0.00 0.00 0.00 0.00 0.00 0.00 0.00 0.00 0.00 0.00 0.00 0.00 0.00 0.00 0.00 0.01 0.00 0.01 0.00 0.00 0.01 0.00 0.04 0.04 0.00 0.03 0.05 0.08 0.01 0.01 0.01
0.00 0.01 0.07 0.07 0.05 0.01 0.00 0.00 0.00 0.00 0.00 0.00 0.00 0.47 0.21 0.01 0.00 0.00 0.00 0.00 0.00 0.00 0.00 0.00 0.00 0.00 0.00 0.00 0.00 0.01 0.01 0.02 0.02 0.00 0.00 0.00 0.00 0.00 0.01 0.00 0.00 0.01 0.01 0.04 0.05 0.05 0.02 0.01 0.01
0.00 0.00 0.00 0.02 0.02 0.02 0.00 0.00 0.00 0.00 0.03 0.00 0.00 0.23 0.11 0.01 0.00 0.00 0.00 0.00 0.00 0.00 0.00 0.01 0.01 0.00 0.00 0.00 0.00 0.00 0.01 0.00 0.00 0.00 0.01 0.00 0.00 0.00 0.00 0.00 0.01 0.01 0.00 0.01 0.06 0.11 0.06 0.01 0.01
0.00 0.00 0.08 0.11 0.03 0.02 0.00 0.00 0.00 0.00 0.02 0.07 0.03 0.05 0.01 0.00 0.00 0.00 0.00 0.00 0.00 0.00 0.00 0.00 0.06 0.05 0.08 0.11 0.05 0.00 0.00 0.01 0.00 0.00 0.00 0.00 0.00 0.00 0.00 0.00 0.00 0.00 0.01 0.04 0.04 0.08 0.12 0.02 0.01
0.00 0.04 0.25 0.00 0.00 0.00 0.00 0.00 0.00 0.00 0.04 0.32 0.05 0.12 0.00 0.00 0.00 0.00 0.00 0.00 0.00 0.00 0.04 0.01 0.04 0.06 0.10 0.10 0.17 0.05 0.00 0.01 0.00 0.00 0.00 0.01 0.02 0.14 0.06 0.04 0.01 0.00 0.01 0.06 0.04 0.07 0.14 0.09 0.02
0.00 0.01 0.05 0.00 0.00 0.00 0.00 0.00 0.00 0.00 0.00 0.28 0.50 0.10 0.00 0.00 0.00 0.00 0.00 0.00 0.00 0.00 0.00 0.00 0.00 0.03 0.05 0.27 0.10 0.07 0.01 0.00 0.00 0.00 0.00 0.00 0.01 0.01 0.01 0.09 0.08 0.02 0.00 0.01 0.00 0.01 0.00 0.01 0.07
0.00 0.00 0.00 0.00 0.00 0.00 0.00 0.00 0.00 0.00 0.00 0.00 0.05 0.04 0.00 0.00 0.00 0.00 0.00 0.00 0.00 0.00 0.00 0.00 0.00 0.02 0.04 0.14 0.49 0.21 0.04 0.00 0.01 0.00 0.00 0.00 0.00 0.00 0.00 0.08 0.11 0.05 0.04 0.05 0.05 0.05 0.07 0.07 0.14
0.00 0.00 0.00 0.00 0.00 0.00 0.00 0.00 0.00 0.00 0.00 0.00 0.00 0.01 0.00 0.00 0.00 0.00 0.00 0.00 0.00 0.00 0.00 0.00 0.00 0.00 0.01 0.05 0.40 0.16 0.10 0.13 0.05 0.00 0.00 0.00 0.00 0.00 0.00 0.04 0.10 0.09 0.08 0.07 0.07 0.04 0.05 0.12 0.09
0.00 0.00 0.00 0.00 0.00 0.00 0.00 0.00 0.00 0.00 0.00 0.00 0.00 0.00 0.00 0.00 0.00 0.00 0.00 0.00 0.00 0.00 0.00 0.00 0.00 0.00 0.00 0.00 0.02 0.03 0.02 0.15 0.40 0.08 0.00 0.00 0.00 0.00 0.03 0.02 0.07 0.10 0.12 0.10 0.04 0.07 0.08 0.11 0.14
0.00 0.00 0.00 0.00 0.00 0.00 0.00 0.00 0.03 0.02 0.00 0.00 0.00 0.00 0.00 0.00 0.00 0.00 0.00 0.00 0.00 0.00 0.00 0.00 0.00 0.00 0.00 0.00 0.00 0.00 0.00 0.00 0.08 0.03 0.01 0.00 0.00 0.01 0.05 0.02 0.02 0.03 0.08 0.09 0.04 0.07 0.03 0.05 0.07
0.00 0.00 0.00 0.00 0.00 0.00 0.00 0.01 0.06 0.00 0.00 0.00 0.00 0.00 0.00 0.00 0.00 0.00 0.00 0.00 0.00 0.00 0.00 0.00 0.00 0.00 0.00 0.00 0.00 0.00 0.00 0.00 0.00 0.00 0.00 0.01 0.00 0.02 0.02 0.01 0.00 0.01 0.03 0.06 0.02 0.07 0.08 0.02 0.05
0.00 0.00 0.00 0.10 0.02 0.00 0.00 0.00 0.00 0.00 0.00 0.00 0.00 0.00 0.00 0.00 0.00 0.00 0.00 0.00 0.00 0.00 0.00 0.00 0.00 0.00 0.00 0.00 0.00 0.00 0.00 0.00 0.00 0.00 0.00 0.00 0.01 0.02 0.02 0.01 0.00 0.01 0.03 0.05 0.03 0.01 0.06 0.09 0.09
0.00 0.00 0.01 0.15 0.01 0.00 0.00 0.00 0.00 0.00 0.00 0.00 0.00 0.00 0.00 0.00 0.00 0.00 0.00 0.00 0.00 0.00 0.00 0.00 0.00 0.00 0.00 0.02 0.02 0.04 0.02 0.00 0.00 0.00 0.00 0.00 0.01 0.02 0.02 0.02 0.04 0.05 0.03 0.04 0.02 0.01 0.05 0.11 0.08
0.00 0.00 0.00 0.02 0.00 0.00 0.00 0.00 0.00 0.00 0.00 0.00 0.00 0.00 0.00 0.00 0.00 0.00 0.00 0.00 0.00 0.00 0.00 0.00 0.00 0.01 0.07 0.08 0.08 0.10 0.06 0.07 0.02 0.00 0.00 0.06 0.07 0.03 0.03 0.01 0.06 0.09 0.09 0.07 0.07 0.07 0.09 0.08 0.18
0.00 0.00 0.00 0.00 0.00 0.00 0.00 0.00 0.00 0.00 0.07 0.00 0.00 0.00 0.00 0.00 0.00 0.00 0.00 0.00 0.00 0.00 0.00 0.00 0.01 0.06 0.13 0.10 0.11 0.09 0.11 0.08 0.09 0.05 0.03 0.02 0.09 0.05 0.03 0.02 0.04 0.11 0.10 0.08 0.06 0.06 0.08 0.07 0.25
0.00 0.00 0.00 0.00 0.00 0.00 0.00 0.00 0.00 0.00 0.10 0.00 0.00 0.00 0.00 0.00 0.00 0.00 0.00 0.00 0.00 0.00 0.00 0.01 0.11 0.12 0.14 0.12 0.10 0.10 0.13 0.16 0.14 0.16 0.10 0.06 0.08 0.08 0.04 0.04 0.04 0.10 0.06 0.06 0.06 0.06 0.15 0.08 0.16
0.00 0.00 0.00 0.00 0.00 0.00 0.00 0.00 0.00 0.00 0.00 0.00 0.01 0.00 0.00 0.00 0.00 0.00 0.00 0.00 0.00 0.00 0.00 0.02 0.06 0.07 0.09 0.11 0.12 0.10 0.11 0.05 0.11 0.06 0.07 0.11 0.10 0.07 0.03 0.05 0.05 0.05 0.05 0.12 0.04 0.05 0.10 0.14 0.19
0.00 0.00 0.00 0.00 0.00 0.00 0.00 0.00 0.00 0.00 0.01 0.05 0.01 0.00 0.00 0.00 0.00 0.00 0.00 0.00 0.00 0.00 0.00 0.00 0.02 0.02 0.02 0.01 0.03 0.04 0.00 0.04 0.09 0.09 0.07 0.10 0.11 0.07 0.06 0.05 0.05 0.06 0.06 0.19 0.08 0.09 0.05 0.13 0.26
0.00 0.00 0.00 0.00 0.00 0.00 0.00 0.00 0.00 0.00 0.01 0.03 0.00 0.00 0.00 0.00 0.00 0.00 0.00 0.00 0.00 0.00 0.00 0.00 0.00 0.00 0.00 0.00 0.01 0.02 0.02 0.07 0.07 0.12 0.07 0.11 0.11 0.07 0.09 0.07 0.06 0.05 0.04 0.14 0.04 0.09 0.04 0.19 0.32
0.00 0.00 0.00 0.00 0.00 0.00 0.00 0.00 0.00 0.00 0.00 0.00 0.00 0.00 0.00 0.00 0.00 0.00 0.00 0.00 0.00 0.00 0.00 0.00 0.00 0.00 0.00 0.00 0.00 0.00 0.10 0.12 0.09 0.13 0.15 0.11 0.09 0.08 0.06 0.07 0.06 0.05 0.03 0.09 0.05 0.11 0.09 0.21 0.16
0.00 0.00 0.00 0.00 0.00 0.00 0.00 0.00 0.00 0.00 0.00 0.00 0.00 0.00 0.00 0.00 0.01 0.01 0.00 0.00 0.00 0.00 0.00 0.00 0.00 0.00 0.00 0.00 0.00 0.02 0.02 0.01 0.09 0.12 0.20 0.12 0.11 0.13 0.09 0.07 0.08 0.06 0.06 0.08 0.20 0.23 0.25 0.15 0.07
0.00 0.00 0.00 0.00 0.00 0.00 0.00 0.00 0.00 0.00 0.00 0.00 0.00 0.00 0.00 0.00 0.03 0.05 0.01 0.00 0.00 0.00 0.00 0.00 0.00 0.00 0.00 0.00 0.00 0.05 0.01 0.01 0.07 0.10 0.15 0.18 0.15 0.10 0.11 0.13 0.12 0.15 0.15 0.12 0.18 0.04 0.01 0.04 0.06
0.00 0.00 0.00 0.00 0.00 0.00 0.00 0.00 0.00 0.01 0.00 0.00 0.00 0.00 0.00 0.00 0.02 0.02 0.04 0.00 0.00 0.00 0.00 0.00 0.00 0.00 0.00 0.00 0.01 0.02 0.01 0.03 0.05 0.07 0.08 0.09 0.14 0.16 0.18 0.15 0.13 0.17 0.22 0.26 0.18 0.01 0.00 0.02 0.03
0.00 0.00 0.00 0.00 0.00 0.00 0.00 0.00 0.01 0.10 0.04 0.02 0.00 0.00 0.00 0.00 0.00 0.11 0.04 0.00 0.00 0.00 0.00 0.00 0.00 0.00 0.00 0.00 0.02 0.01 0.00 0.01 0.02 0.00 0.02 0.03 0.04 0.08 0.11 0.18 0.16 0.12 0.22 0.26 0.24 0.11 0.08 0.04 0.04
0.00 0.00 0.00 0.00 0.00 0.00 0.00 0.00 0.03 0.10 0.10 0.06 0.01 0.00 0.00 0.00 0.02 0.04 0.01 0.00 0.00 0.00 0.00 0.00 0.00 0.00 0.00 0.00 0.01 0.00 0.00 0.00 0.00 0.00 0.00 0.00 0.00 0.01 0.05 0.10 0.13 0.19 0.10 0.03 0.06 0.08 0.07 0.03 0.01
MSLP
1006.41 1005.66 1005.00 1003.43 1004.20 1003.84 999.98 998.65 997.93 998.34 998.94 999.37 999.84 1000.34 1001.85 1002.57 1002.73 1003.96 1004.18 1004.76 1006.15 1007.61 1008.81 1009.61 1010.30 1010.79 1011.20 1011.70 1012.16 1012.68 1013.11 1013.55 1013.96 1014.18 1014.59 1014.92 1015.04 1015.28 1015.63 1015.67 1015.80 1015.96 1016.22 1016.20 1016.26 1016.37 1016.51 1016.60 1016.74
1005.37 1004.88 1004.98 1006.98 1005.69 1003.68 1000.18 998.55 998.63 999.01 999.12 999.58 1000.25 1000.75 1002.14 1003.13 1003.71 1004.45 1005.11 1004.88 1005.72 1007.27 1008.72 1009.78 1010.49 1011.04 1011.40 1011.68 1012.14 1012.68 1013.28 1013.79 1014.25 1014.45 1014.69 1014.98 1015.37 1015.49 1015.65 1015.86 1016.03 1016.13 1016.29 1016.40 1016.48 1016.58 1016.75 1016.85 1016.95
1006.57 1006.04 1006.05 1008.56 1007.12 1003.11 999.82 998.40 998.74 999.59 999.80 1000.35 1001.70 1002.40 1002.56 1003.17 1003.52 1004.56 1005.45 1005.41 1005.87 1006.93 1008.14 1010.00 1010.69 1011.23 1011.62 1011.87 1012.31 1012.85 1013.33 1013.86 1014.36 1014.58 1014.94 1015.18 1015.32 1015.60 1015.71 1015.80 1016.12 1016.26 1016.37 1016.50 1016.55 1016.74 1016.93 1017.05 1017.06
1004.79 1004.12 1004.64 1005.74 1005.02 1001.84 998.96 998.18 998.49 999.94 1000.40 1001.09 1001.76 1003.37 1002.63 1003.15 1003.53 1004.89 1005.62 1005.39 1006.10 1006.54 1008.11 1010.10 1010.96 1011.37 1011.82 1012.14 1012.38 1012.92 1013.40 1013.86 1014.30 1014.70 1014.97 1015.20 1015.36 1015.59 1015.75 1015.82 1016.13 1016.43 1016.41 1016.58 1016.67 1016.80 1017.06 1017.13 1017.15
1004.07 1004.19 1008.20 1008.89 1003.85 1000.28 998.44 997.95 998.22 999.60 1000.28 1001.59 1004.63 1006.06 1004.10 1004.10 1004.97 1005.62 1005.94 1006.00 1006.43 1007.50 1008.77 1010.01 1010.90 1011.46 1011.96 1012.21 1012.56 1012.98 1013.36 1013.88 1014.27 1014.61 1014.96 1015.08 1015.29 1015.46 1015.61 1015.75 1016.07 1016.28 1016.44 1016.52 1016.62 1016.93 1016.93 1017.21 1017.19
1003.44 1004.69 1006.78 1006.55 1004.10 999.81 998.02 997.70 998.03 999.34 1000.12 1002.58 1005.40 1006.71 1007.20 1005.51 1005.79 1006.02 1006.43 1006.39 1007.01 1007.80 1008.95 1010.09 1010.94 1011.50 1012.01 1012.41 1012.64 1013.01 1013.38 1013.73 1014.07 1014.46 1014.69 1014.97 1015.13 1015.39 1015.42 1015.62 1015.94 1016.05 1016.39 1016.52 1016.82 1016.96 1017.00 1017.27 1017.25
1003.37 1004.42 1005.01 1006.20 1004.29 1001.47 998.40 998.18 998.41 999.69 1000.75 1002.08 1005.58 1007.52 1007.81 1005.86 1006.08 1006.26 1006.59 1006.55 1007.46 1007.85 1009.10 1010.06 1010.94 1011.52 1012.02 1012.43 1012.66 1012.91 1013.19 1013.59 1013.82 1014.13 1014.42 1014.63 1015.01 1015.31 1015.42 1015.60 1015.79 1015.86 1016.23 1016.41 1016.80 1016.92 1017.11 1017.30 1017.34
1002.70 1002.65 1004.78 1005.76 1004.31 1002.53 999.62 998.67 999.11 999.76 1002.62 1003.29 1004.62 1006.14 1006.97 1005.92 1006.27 1006.43 1006.78 1007.23 1007.41 1008.05 1008.92 1009.98 1010.84 1011.38 1011.87 1012.34 1012.59 1012.83 1013.09 1013.33 1013.61 1013.91 1014.30 1014.49 1014.67 1014.91 1015.27 1015.46 1015.82 1015.78 1016.09 1016.28 1016.55 1016.84 1017.04 1017.23 1017.37
1002.77 1004.42 1006.45 1006.10 1003.95 1000.11 998.76 998.37 998.81 999.99 1003.03 1005.57 1006.48 1004.90 1005.06 1005.91 1006.05 1006.81 1007.29 1007.97 1008.25 1008.68 1009.09 1009.78 1010.72 1011.12 1011.51 1011.90 1012.23 1012.56 1012.91 1013.18 1013.40 1013.82 1014.13 1014.39 1014.55 1014.82 1015.04 1015.38 1015.51 1015.76 1015.99 1016.09 1016.30 1016.69 1017.02 1017.20 1017.40
1002.29 1004.45 1006.31 1003.51 1001.15 999.16 998.28 998.05 998.61 1001.67 1004.36 1007.06 1006.64 1006.63 1005.89 1005.67 1005.55 1006.45 1007.46 1008.05 1008.48 1008.71 1009.38 1009.98 1010.56 1010.96 1011.16 1011.20 1011.86 1012.40 1012.64 1012.81 1013.17 1013.58 1014.01 1014.40 1014.22 1014.73 1014.83 1015.21 1015.27 1015.85 1015.83 1016.02 1016.07 1016.59 1016.88 1017.18 1017.30
1001.21 1002.61 1001.73 1001.47 999.50 998.96 998.28 997.90 998.35 1001.49 1004.05 1005.02 1005.13 1005.31 1005.42 1005.65 1005.16 1006.14 1007.14 1007.90 1008.38 1008.85 1009.39 1009.91 1010.25 1010.27 1010.57 1011.66 1012.65 1013.06 1013.34 1013.10 1013.00 1013.38 1013.99 1014.33 1014.38 1014.76 1014.59 1015.05 1015.56 1015.67 1015.75 1015.72 1015.89 1016.28 1016.52 1016.72 1016.97
1000.27 1000.10 1000.96 999.10 998.59 998.49 997.97 998.08 998.41 999.08 1001.56 1002.55 1003.99 1004.24 1004.91 1005.17 1004.89 1005.62 1006.65 1007.31 1007.94 1008.55 1009.03 1009.61 1010.02 1010.27 1010.93 1011.79 1013.21 1013.19 1012.84 1013.01 1012.54 1012.73 1013.55 1014.28 1014.61 1014.64 1014.58 1014.77 1015.11 1015.32 1015.67 1015.52 1015.68 1015.78 1016.10 1016.27 1016.62
999.69 999.37 999.04 998.31 998.34 998.01 997.98 998.41 998.88 1000.00 1000.62 1002.26 1003.37 1004.28 1004.42 1004.22 1004.75 1005.84 1006.37 1006.93 1007.45 1008.04 1008.63 1009.30 1009.92 1010.16 1010.90 1012.15 1013.27 1013.50 1012.37 1012.31 1012.13 1012.01 1012.58 1013.60 1014.12 1014.33 1014.21 1014.64 1014.96 1015.16 1015.50 1015.54 1015.70 1015.77 1015.85 1016.16 1016.50
999.06 998.64 998.60 998.50 998.28 998.13 997.83 998.74 999.55 1000.31 1000.72 1001.46 1002.32 1002.99 1003.39 1003.86 1004.78 1005.56 1006.15 1006.79 1007.41 1008.10 1008.75 1009.44 1010.01 1010.21 1010.58 1011.46 1012.23 1012.38 1011.86 1012.55 1013.36 1013.68 1012.42 1012.73 1013.58 1013.93 1014.19 1014.70 1014.99 1015.14 1015.24 1015.48 1015.49 1015.73 1015.77 1016.17 1016.32
999.26 998.90 998.67 998.76 998.50 997.95 998.18 999.46 1000.63 1000.92 1000.74 1000.72 1001.39 1002.10 1002.60 1003.34 1004.20 1005.12 1005.87 1006.57 1007.24 1008.10 1008.82 1009.57 1010.02 1010.21 1010.35 1010.70 1011.03 1010.96 1010.44 1010.97 1012.44 1013.43 1011.82 1012.33 1013.18 1013.73 1014.23 1014.72 1014.93 1014.77 1015.09 1015.32 1015.43 1015.47 1015.70 1016.03 1016.11
999.30 999.08 999.32 998.66 999.12 998.08 998.50 999.65 999.91 999.75 1000.64 1000.11 1000.76 1001.33 1001.93 1002.93 1003.85 1004.74 1005.54 1006.38 1007.17 1007.88 1008.64 1009.42 1009.75 1010.11 1010.44 1010.61 1010.63 1010.63 1010.44 1010.21 1010.55 1010.74 1010.93 1011.92 1012.74 1013.40 1013.78 1014.19 1014.44 1014.41 1014.75 1015.12 1015.46 1015.50 1015.76 1015.82 1016.08
999.02 998.92 999.28 1001.53 1000.36 998.57 998.27 998.70 999.02 998.99 999.43 998.89 999.44 1000.30 1001.19 1002.02 1003.30 1004.33 1005.19 1006.15 1007.16 1007.83 1008.43 1009.06 1009.41 1009.95 1010.49 1010.82 1010.96 1010.93 1010.75 1010.70 1010.57 1010.52 1010.87 1011.59 1012.08 1012.75 1013.43 1013.69 1013.83 1014.06 1014.52 1014.85 1015.39 1015.50 1015.54 1015.77 1016.11
998.03 998.29 1000.90 1004.40 1001.72 999.05 998.15 997.61 998.38 999.06 998.46 998.94 999.11 1000.34 1001.34 1002.08 1002.27 1003.60 1004.63 1005.80 1006.90 1007.83 1008.57 1009.27 1009.71 1010.17 1010.69 1011.09 1011.27 1011.15 1011.03 1010.94 1010.75 1010.79 1010.96 1011.25 1011.56 1012.05 1012.89 1013.16 1013.40 1013.71 1014.42 1014.75 1015.16 1015.29 1015.28 1015.52 1016.05
998.28 998.35 998.92 1001.02 998.92 998.67 998.36 997.67 997.85 998.47 999.06 998.66 998.73 999.69 1000.20 1000.83 1001.44 1002.88 1004.11 1005.06 1006.42 1007.54 1008.57 1009.37 1009.93 1010.32 1010.82 1011.11 1011.51 1011.58 1011.37 1011.37 1010.99 1010.93 1011.02 1011.23 1011.59 1011.93 1012.26 1012.98 1013.23 1013.56 1014.08 1014.42 1014.81 1014.99 1015.25 1015.66 1015.99
998.29 998.22 998.35 998.24 997.95 997.94 997.79 997.89 998.61 1000.16 1001.69 1001.75 1000.78 999.76 999.82 999.63 1001.16 1002.61 1003.58 1004.64 1005.91 1007.24 1008.33 1009.22 1009.79 1010.15 1010.80 1011.27 1011.46 1011.58 1011.55 1011.56 1011.46 1011.32 1011.06 1011.28 1011.69 1011.82 1012.03 1012.65 1012.91 1013.33 1013.75 1014.23 1014.45 1014.75 1015.12 1015.73 1016.07
998.42 998.19 997.91 997.66 997.34 997.06 997.58 998.18 998.94 1001.61 1001.66 1001.52 999.90 998.97 999.13 999.82 1001.04 1002.29 1003.15 1004.08 1005.89 1007.49 1008.35 1008.96 1009.74 1010.29 1010.72 1011.21 1011.38 1011.53 1011.67 1011.51 1011.34 1011.38 1011.32 1011.10 1011.09 1011.61 1011.74 1012.13 1012.80 1013.03 1013.44 1013.78 1014.08 1014.37 1014.94 1015.59 1016.00
998.15 997.95 998.08 998.01 997.93 997.33 997.47 997.50 998.58 1000.94 1001.65 1001.61 1000.98 999.51 999.45 1000.10 1001.28 1002.63 1003.88 1005.03 1005.97 1006.93 1007.80 1008.59 1009.24 1009.91 1010.54 1011.14 1011.32 1011.61 1011.74 1011.69 1011.34 1011.21 1011.17 1011.14 1011.09 1011.11 1011.34 1011.89 1012.32 1012.76 1013.05 1013.30 1013.72 1014.23 1014.71 1015.11 1015.96
998.16 997.80 998.02 998.30 998.28 998.30 998.19 998.29 999.14 1000.10 1002.06 1001.73 1001.14 1000.22 999.30 1000.36 1001.64 1003.25 1004.34 1005.18 1006.09 1006.56 1007.24 1008.57 1009.15 1009.88 1010.49 1010.84 1011.15 1011.41 1011.65 1011.60 1011.24 1010.98 1010.81 1010.80 1010.93 1010.68 1011.00 1011.51 1012.03 1012.51 1012.81 1012.96 1013.47 1013.97 1014.51 1014.79 1015.83
998.16 998.21 998.69 999.04 998.82 998.39 998.34 998.57 998.91 999.44 1001.00 1000.47 999.90 999.56 1000.10 1001.22 1002.65 1003.84 1004.92 1005.82 1005.96 1006.30 1007.19 1008.46 1009.20 1009.77 1010.20 1010.62 1010.98 1011.33 1011.44 1011.19 1010.98 1010.61 1010.42 1010.35 1010.53 1010.79 1010.99 1011.20 1011.63 1012.05 1012.38 1012.57 1013.15 1013.51 1014.17 1014.69 1015.08
998.07 998.51 998.62 998.90 998.62 998.26 998.30 998.12 997.73 997.91 998.89 998.97 999.48 999.79 1000.81 1002.15 1003.45 1004.44 1005.54 1005.95 1006.02 1006.26 1007.35 1008.26 1009.36 1009.93 1010.17 1010.53 1010.93 1011.32 1011.44 1011.15 1010.85 1010.53 1010.14 1010.26 1010.44 1010.59 1010.85 1011.18 1011.50 1011.83 1012.07 1012.28 1012.87 1013.35 1013.97 1014.41 1014.73
997.45 998.32 998.26 998.05 998.10 999.19 999.37 999.45 998.90 997.57 998.43 998.66 998.74 999.67 1000.85 1002.47 1003.55 1004.39 1005.35 1005.91 1006.21 1006.91 1007.73 1008.47 1009.50 1010.22 1010.38 1010.51 1010.90 1011.24 1011.55 1011.42 1010.97 1010.64 1010.28 1010.34 1010.47 1010.54 1010.73 1010.94 1011.29 1011.53 1011.65 1011.96 1012.37 1012.92 1013.53 1014.20 1014.50
996.93 997.58 998.20 998.27 998.14 998.55 998.95 999.21 999.10 998.39 998.98 999.38 999.40 1000.01 1000.97 1002.71 1003.91 1005.12 1005.52 1005.77 1006.69 1007.29 1007.99 1008.72 1009.68 1010.24 1010.44 1010.70 1010.98 1011.34 1011.65 1011.72 1011.28 1010.82 1010.59 1010.59 1010.65 1010.70 1010.74 1010.93 1011.14 1011.22 1011.44 1011.78 1012.24 1012.94 1013.55 1013.97 1014.43
996.96 997.22 997.76 998.17 998.22 998.16 998.08 999.02 999.81 1000.03 1000.91 1000.53 1000.23 1000.50 1001.31 1002.90 1004.26 1004.82 1005.03 1005.76 1006.62 1007.55 1008.43 1009.18 1009.73 1010.23 1010.42 1010.82 1011.05 1011.45 1011.93 1011.86 1011.53 1011.23 1011.10 1010.96 1011.04 1011.01 1010.89 1010.96 1011.20 1011.21 1011.32 1011.71 1012.42 1013.02 1013.60 1014.04 1014.57
996.47 996.89 996.94 997.22 997.62 997.73 998.36 1001.15 1002.10 1002.23 1001.97 1001.87 1001.10 1000.97 1001.58 1002.90 1003.86 1005.00 1005.57 1006.18 1006.72 1007.72 1008.48 1009.18 1009.50 1010.01 1010.31 1010.75 1011.09 1011.46 1011.91 1012.00 1011.94 1011.83 1011.65 1011.55 1011.44 1011.34 1011.29 1011.23 1011.41 1011.61 1011.76 1012.11 1012.60 1012.98 1013.70 1014.32 1014.76
995.71 995.92 996.61 996.97 997.47 997.69 998.50 1000.74 1002.15 1004.22 1003.79 1001.77 1001.90 1001.35 1001.82 1002.91 1004.28 1005.03 1005.76 1006.42 1006.92 1007.61 1008.07 1008.80 1009.08 1009.55 1010.19 1010.48 1010.85 1011.31 1011.68 1011.86 1011.98 1012.08 1011.96 1011.88 1011.89 1011.96 1011.94 1011.89 1012.01 1012.29 1012.69 1012.93 1013.12 1013.60 1014.27 1014.79 1015.28
Thickness
5843 5849 5852 5851 5800 5791 5828 5842 5863 5844 5839 5856 5856 5841 5822 5824 5811 5781 5839 5839 5832 5819 5809 5802 5796 5792 5789 5786 5783 5780 5776 5773 5770 5769 5767 5765 5765 5764 5762 5762 5761 5761 5758 5760 5761 5762 5763 5762 5764
5852 5853 5841 5787 5777 5771 5823 5857 5838 5844 5855 5860 5854 5847 5825 5808 5828 5824 5822 5839 5834 5821 5808 5799 5793 5788 5785 5784 5780 5777 5773 5768 5766 5764 5763 5763 5763 5762 5761 5760 5760 5759 5757 5757 5758 5760 5760 5761 5762
5842 5844 5806 5764 5760 5785 5821 5853 5848 5849 5860 5848 5829 5835 5826 5815 5833 5828 5832 5836 5832 5822 5811 5796 5789 5785 5782 5780 5778 5774 5771 5767 5763 5762 5760 5760 5761 5760 5760 5760 5758 5758 5757 5756 5756 5758 5758 5759 5760
5848 5847 5833 5796 5796 5826 5851 5860 5859 5843 5850 5847 5839 5801 5833 5842 5837 5832 5834 5836 5828 5825 5810 5795 5786 5782 5779 5777 5775 5772 5769 5766 5762 5760 5758 5758 5759 5759 5759 5760 5757 5756 5756 5755 5756 5756 5756 5758 5760
5853 5837 5754 5736 5780 5858 5873 5873 5873 5847 5851 5839 5803 5740 5801 5828 5835 5831 5829 5829 5822 5814 5804 5794 5786 5781 5777 5775 5772 5770 5768 5763 5760 5759 5756 5757 5758 5759 5760 5761 5758 5756 5756 5756 5756 5755 5757 5757 5758
5831 5818 5778 5754 5794 5859 5878 5884 5878 5860 5864 5829 5799 5780 5772 5821 5824 5826 5825 5823 5821 5811 5802 5793 5785 5780 5776 5773 5771 5769 5766 5764 5761 5759 5757 5757 5758 5758 5762 5761 5760 5760 5758 5757 5754 5755 5756 5756 5758
5825 5799 5796 5784 5782 5814 5867 5881 5868 5856 5854 5844 5812 5777 5781 5816 5824 5824 5822 5823 5815 5813 5800 5792 5784 5779 5774 5772 5770 5769 5767 5765 5764 5761 5760 5760 5759 5758 5759 5760 5759 5762 5759 5759 5754 5754 5755 5756 5757
5844 5836 5781 5786 5801 5802 5859 5871 5876 5863 5835 5853 5830 5775 5784 5815 5825 5823 5820 5814 5813 5808 5802 5792 5784 5778 5774 5771 5769 5768 5767 5766 5764 5762 5759 5760 5760 5761 5759 5759 5758 5761 5759 5760 5758 5755 5754 5755 5756
5856 5790 5745 5764 5779 5847 5876 5866 5878 5875 5829 5806 5809 5819 5828 5828 5830 5816 5807 5803 5801 5800 5797 5792 5784 5779 5776 5774 5771 5769 5768 5765 5764 5762 5759 5759 5761 5760 5759 5756 5757 5756 5758 5760 5760 5757 5754 5755 5755
5835 5783 5767 5820 5844 5863 5878 5876 5875 5835 5808 5793 5807 5811 5826 5829 5826 5811 5800 5794 5792 5793 5790 5787 5783 5780 5778 5779 5774 5770 5769 5769 5766 5762 5758 5756 5758 5754 5752 5753 5756 5753 5756 5759 5760 5757 5756 5754 5755
5846 5796 5827 5837 5874 5877 5873 5877 5886 5830 5800 5810 5809 5817 5824 5822 5826 5815 5805 5797 5792 5791 5788 5786 5783 5783 5782 5769 5760 5759 5758 5764 5767 5762 5756 5755 5754 5750 5748 5751 5750 5752 5753 5758 5760 5759 5758 5757 5757
5839 5858 5842 5872 5879 5873 5868 5878 5870 5876 5835 5844 5833 5835 5829 5822 5824 5816 5804 5801 5797 5791 5789 5786 5783 5781 5774 5763 5750 5751 5760 5758 5767 5764 5758 5754 5751 5751 5751 5752 5752 5750 5751 5755 5759 5762 5761 5759 5758
5849 5859 5870 5880 5877 5876 5878 5864 5863 5850 5860 5846 5842 5829 5827 5832 5826 5815 5810 5806 5801 5794 5791 5787 5783 5780 5771 5759 5747 5745 5758 5761 5765 5766 5762 5754 5752 5751 5753 5749 5745 5745 5747 5750 5755 5759 5761 5759 5757
5864 5867 5868 5872 5872 5874 5868 5857 5857 5852 5860 5846 5840 5835 5836 5831 5821 5814 5810 5803 5799 5794 5786 5782 5777 5776 5773 5761 5757 5755 5759 5754 5744 5737 5756 5756 5750 5749 5747 5744 5740 5740 5741 5746 5751 5754 5760 5757 5757
5862 5846 5860 5862 5868 5869 5875 5834 5827 5844 5851 5848 5843 5838 5837 5833 5828 5816 5812 5805 5801 5792 5786 5778 5774 5773 5770 5768 5764 5764 5769 5764 5745 5738 5758 5754 5748 5745 5741 5739 5739 5739 5738 5741 5747 5752 5755 5757 5756
5843 5847 5822 5858 5859 5876 5863 5815 5829 5855 5837 5846 5843 5841 5838 5832 5827 5822 5816 5808 5801 5794 5785 5779 5776 5771 5767 5765 5765 5764 5763 5765 5763 5762 5761 5752 5746 5742 5740 5738 5737 5738 5736 5738 5744 5748 5750 5755 5756
5840 5817 5830 5795 5829 5865 5857 5829 5844 5851 5839 5847 5848 5842 5837 5831 5827 5823 5818 5810 5801 5795 5786 5778 5775 5768 5763 5759 5758 5757 5757 5757 5757 5757 5755 5751 5747 5742 5739 5740 5738 5737 5736 5738 5739 5744 5748 5749 5751
5826 5830 5795 5743 5789 5855 5850 5848 5852 5849 5864 5855 5848 5840 5833 5828 5827 5827 5819 5813 5804 5794 5786 5777 5771 5766 5761 5757 5753 5752 5751 5749 5748 5746 5746 5746 5746 5743 5738 5738 5737 5736 5734 5735 5738 5740 5746 5748 5746
5844 5839 5836 5787 5851 5847 5840 5846 5859 5864 5853 5858 5852 5827 5831 5834 5833 5830 5823 5815 5803 5794 5783 5774 5767 5763 5756 5749 5742 5739 5738 5737 5739 5739 5736 5737 5736 5736 5737 5735 5735 5732 5731 5732 5736 5740 5741 5742 5743
5839 5830 5830 5847 5860 5848 5840 5838 5854 5830 5811 5811 5829 5841 5839 5841 5834 5824 5820 5815 5803 5793 5783 5774 5766 5761 5753 5746 5742 5738 5734 5728 5725 5725 5727 5726 5727 5727 5730 5731 5732 5731 5730 5730 5735 5736 5736 5736 5737
5828 5823 5828 5830 5849 5854 5839 5825 5839 5808 5814 5820 5842 5855 5848 5838 5828 5823 5815 5814 5799 5784 5779 5775 5766 5760 5753 5746 5740 5732 5726 5721 5718 5715 5717 5721 5724 5723 5725 5727 5727 5728 5729 5729 5732 5735 5734 5728 5732
5809 5842 5836 5830 5822 5806 5848 5803 5839 5816 5812 5813 5798 5843 5843 5838 5833 5820 5810 5800 5798 5789 5782 5777 5768 5760 5752 5742 5733 5723 5713 5708 5713 5714 5714 5715 5719 5722 5724 5722 5722 5725 5728 5729 5730 5731 5730 5731 5724
5819 5846 5834 5829 5817 5813 5818 5808 5820 5826 5790 5798 5804 5790 5841 5835 5825 5815 5807 5802 5796 5794 5787 5772 5765 5757 5749 5743 5734 5723 5712 5709 5711 5713 5713 5714 5717 5721 5720 5719 5720 5722 5726 5728 5728 5726 5726 5731 5724
5841 5829 5822 5818 5811 5782 5809 5808 5807 5799 5794 5805 5823 5837 5831 5824 5816 5810 5803 5797 5794 5794 5785 5771 5761 5755 5750 5743 5735 5723 5714 5712 5712 5714 5714 5716 5718 5717 5718 5718 5720 5722 5726 5727 5726 5726 5726 5727 5727
5827 5807 5775 5767 5775 5777 5821 5815 5823 5837 5829 5831 5823 5828 5822 5813 5807 5799 5789 5788 5788 5788 5780 5771 5757 5750 5747 5741 5732 5723 5714 5713 5714 5714 5716 5715 5715 5716 5716 5717 5718 5720 5724 5726 5726 5725 5726 5726 5726
5815 5806 5781 5758 5773 5770 5795 5760 5784 5846 5846 5847 5843 5831 5821 5808 5804 5799 5791 5787 5785 5780 5773 5765 5752 5744 5743 5739 5731 5724 5713 5711 5713 5714 5716 5715 5714 5715 5717 5717 5718 5720 5723 5725 5726 5726 5724 5724 5725
5816 5794 5820 5792 5806 5790 5794 5804 5816 5836 5832 5832 5832 5827 5816 5803 5798 5788 5788 5789 5780 5776 5768 5761 5749 5742 5741 5737 5731 5724 5714 5709 5711 5713 5715 5714 5714 5714 5716 5717 5718 5720 5722 5724 5724 5721 5720 5722 5722
5819 5831 5787 5791 5756 5758 5801 5800 5781 5792 5791 5817 5820 5819 5814 5803 5788 5792 5793 5788 5781 5772 5764 5754 5747 5739 5740 5736 5730 5724 5717 5710 5711 5712 5712 5713 5712 5713 5715 5715 5715 5718 5721 5721 5718 5716 5717 5718 5717
5809 5799 5809 5812 5804 5782 5783 5757 5785 5775 5789 5795 5813 5818 5812 5804 5797 5786 5785 5782 5777 5769 5760 5752 5744 5740 5737 5734 5730 5724 5718 5714 5710 5707 5709 5710 5711 5713 5712 5713 5714 5715 5716 5717 5714 5714 5712 5710 5710
5829 5816 5809 5783 5781 5803 5800 5759 5790 5763 5765 5790 5802 5816 5814 5806 5794 5789 5784 5779 5774 5766 5763 5752 5746 5741 5739 5736 5731 5725 5720 5717 5713 5709 5708 5709 5708 5709 5709 5708 5709 5709 5708 5709 5708 5705 5703 5702 5701